Tampa Macdill AFB, FL

8:00 AM EDT on August 22, 2017 (GMT -0400)
MacDill Air Force Base

Weather History for KMCF - January, 2013

Change the Weather History Date:

Thursday, January 3, 2013

  Actual Average Record
Temperature  
Mean Temperature 66 °F -  
Max Temperature 75 °F 68 °F 82 °F (2004)
Min Temperature 58 °F 50 °F 29 °F (2008)
Cooling Degree Days 2    
Growing Degree Days 16 (Base 50)    
Moisture  
Dew Point 63 °F    
Average Humidity 99    
Maximum Humidity 100    
Minimum Humidity 82    
Precipitation  
Precipitation 0.31 in - - ()
Sea Level Pressure  
Sea Level Pressure 30.11 in    
Wind  
Wind Speed 4 mph (ENE)    
Max Wind Speed 21 mph    
Max Gust Speed 20 mph    
Visibility 4 miles    
Events Fog , Rain    
Averages and records for this station are not official NWS values.
T = Trace of Precipitation, MM = Missing Value Source: NWS Daily Summary

Daily Weather History Graph

Daily Weather History Graph

Search for Another Location

Airport or City:

Trip Planner

Search our weather history database for the weather conditions in past years. The results will help you decide how hot, cold, wet, or windy it might be!

Date:

Astronomy

Jan. 03, 2013 Rise Set
Actual Time 7:21 AM EST 5:47 PM EST
Civil Twilight 6:56 AM EST 6:13 PM EST
Nautical Twilight 6:27 AM EST 6:42 PM EST
Astronomical Twilight 5:58 AM EST 7:11 PM EST
Moon 11:45 PM EST (1/3) 11:06 AM EST (1/3)
Length of Visible Light 11h 17m
Length of Day
10h 26m
Waning Gibbous, 65% of the Moon is Illuminated
Jan 3
Waning Gibbous
Jan 4
Last Quarter
Jan 11
New
Jan 18
First Quarter
Jan 26
Full

Hourly Weather History & Observations

Time (EST) Temp. Dew Point Humidity Pressure Visibility Wind Dir Wind Speed Gust Speed Precip Events Conditions
12:03 AM 60.8 °F 60.8 °F 100% 30.08 in 0.5 mi Calm Calm - N/A Fog Fog
12:07 AM 60.8 °F 60.8 °F 100% 30.08 in 0.5 mi Calm Calm - N/A Fog Fog
12:11 AM 62.6 °F 62.6 °F 100% 30.08 in 0.8 mi Calm Calm - N/A   Mist
12:14 AM 62.6 °F 62.6 °F 100% 30.08 in 1.0 mi Calm Calm - N/A   Mist
12:28 AM 62.6 °F 62.6 °F 100% 30.08 in 1.0 mi Calm Calm - N/A   Mist
12:29 AM 62.6 °F 62.6 °F 100% 30.08 in 1.0 mi Calm Calm - N/A   Mist
12:31 AM 62.6 °F 62.6 °F 100% 30.08 in 1.2 mi Calm Calm - N/A   Overcast
12:35 AM 62.6 °F 62.6 °F 100% 30.07 in 1.5 mi Calm Calm - N/A   Overcast
12:38 AM 62.6 °F 62.6 °F 100% 30.07 in 1.5 mi Calm Calm - N/A   Overcast
12:41 AM 62.6 °F 62.6 °F 100% 30.07 in 1.8 mi Calm Calm - N/A   Overcast
12:45 AM 62.6 °F 62.6 °F 100% 30.07 in 2.0 mi Calm Calm - N/A   Overcast
12:48 AM 62.6 °F 62.6 °F 100% 30.07 in 1.8 mi Calm Calm - N/A   Overcast
12:51 AM 62.6 °F 62.6 °F 100% 30.07 in 1.5 mi Calm Calm - N/A   Overcast
12:53 AM 62.6 °F 62.6 °F 100% 30.07 in 1.2 mi Calm Calm - N/A   Overcast
12:55 AM 62.8 °F 62.8 °F 100% 30.07 in 1.2 mi Calm Calm - N/A   Overcast
12:56 AM 62.6 °F 62.6 °F 100% 30.07 in 1.0 mi Calm Calm - N/A   Mist
1:01 AM 62.6 °F 62.6 °F 100% 30.07 in 1.0 mi Calm Calm - N/A   Mist
1:02 AM 62.6 °F 62.6 °F 100% 30.07 in 0.8 mi Calm Calm - N/A   Mist
1:08 AM 62.6 °F 62.6 °F 100% 30.07 in 0.8 mi Calm Calm - N/A   Mist
1:17 AM 62.6 °F 62.6 °F 100% 30.07 in 0.5 mi Calm Calm - N/A Fog Fog
1:27 AM 62.6 °F 62.6 °F 100% 30.07 in 0.5 mi Calm Calm - N/A Fog Fog
1:55 AM 63.5 °F 63.5 °F 100% 30.07 in 0.5 mi West 3.5 mph - N/A Fog Fog
2:39 AM 64.4 °F 64.4 °F 100% 30.06 in 0.2 mi Calm Calm - N/A Fog Fog
2:55 AM 63.7 °F 63.7 °F 100% 30.06 in 0.2 mi Calm Calm - N/A Fog Fog
3:38 AM 64.4 °F 64.4 °F 100% 30.06 in 0.5 mi Calm Calm - N/A Fog Fog
3:46 AM 64.4 °F 64.4 °F 100% 30.06 in 0.2 mi Calm Calm - N/A Fog Fog
3:55 AM 63.9 °F 63.9 °F 100% 30.05 in 0.2 mi Calm Calm - N/A Fog Fog
4:55 AM 63.9 °F 63.9 °F 100% 30.05 in 0.2 mi South 5.8 mph - N/A Fog Fog
5:55 AM 63.0 °F 63.0 °F 100% 30.07 in 0.2 mi South 6.9 mph - N/A Fog Fog
5:57 AM 62.6 °F 62.6 °F 100% 30.07 in 0.5 mi South 5.8 mph - N/A Fog Fog
5:59 AM 62.6 °F 62.6 °F 100% 30.07 in 0.2 mi SSE 6.9 mph - N/A Fog Fog
6:30 AM 62.6 °F 62.6 °F 100% 30.08 in 0.5 mi South 4.6 mph - N/A Fog Fog
6:36 AM 62.6 °F 62.6 °F 100% 30.08 in 0.2 mi South 4.6 mph - N/A Fog Fog
6:52 AM 62.6 °F 62.6 °F 100% 30.08 in 0.5 mi South 4.6 mph - N/A Fog Fog
6:55 AM 63.1 °F 63.1 °F 100% 30.09 in 0.5 mi South 4.6 mph - N/A Fog Fog
7:05 AM 62.6 °F 62.6 °F 100% 30.09 in 0.2 mi Calm Calm - N/A Fog Fog
7:16 AM 62.6 °F 62.6 °F 100% 30.10 in 0.5 mi Calm Calm - N/A Fog Fog
7:19 AM 62.6 °F 62.6 °F 100% 30.09 in 0.2 mi Calm Calm - N/A Fog Fog
7:45 AM 64.4 °F 64.4 °F 100% 30.10 in 0.2 mi Calm Calm - N/A Fog Fog
7:50 AM 64.4 °F 64.4 °F 100% 30.10 in 0.2 mi Calm Calm - N/A Fog Fog
7:55 AM 63.5 °F 63.5 °F 100% 30.10 in 0.2 mi Calm Calm - N/A Fog Fog
7:56 AM 64.4 °F 64.4 °F 100% 30.10 in 0.5 mi Calm Calm - N/A Fog Fog
7:59 AM 64.4 °F 64.4 °F 100% 30.10 in 0.5 mi Calm Calm - N/A Fog Fog
8:03 AM 64.4 °F 64.4 °F 100% 30.11 in 0.5 mi Calm Calm - N/A Fog Fog
8:24 AM 64.4 °F 64.4 °F 100% 30.11 in 0.5 mi East 3.5 mph - N/A Fog Fog
8:34 AM 64.4 °F 64.4 °F 100% 30.11 in 0.2 mi SE 3.5 mph - N/A Fog Fog
8:39 AM 64.4 °F 64.4 °F 100% 30.11 in 0.2 mi Calm Calm - N/A Fog Fog
8:40 AM 64.4 °F 64.4 °F 100% 30.11 in 0.2 mi Calm Calm - N/A Fog Fog
8:55 AM 64.4 °F 64.4 °F 100% 30.11 in 0.2 mi SE 3.5 mph - N/A Fog Fog
9:08 AM 64.4 °F 64.4 °F 100% 30.11 in 0.2 mi SE 3.5 mph - N/A Fog Fog
9:18 AM 64.4 °F 64.4 °F 100% 30.12 in 0.2 mi SSW 4.6 mph - N/A Fog Fog
9:22 AM 64.4 °F 64.4 °F 100% 30.12 in 0.2 mi SSW 4.6 mph - N/A Fog Fog
9:45 AM 64.4 °F 64.4 °F 100% 30.12 in 0.2 mi SE 4.6 mph - N/A Fog Fog
9:52 AM 66.2 °F 66.2 °F 100% 30.12 in 0.5 mi South 4.6 mph - N/A Fog Fog
9:55 AM 65.3 °F 65.3 °F 100% 30.12 in 0.5 mi South 4.6 mph - N/A Fog Fog
9:58 AM 64.4 °F 64.4 °F 100% 30.12 in 0.5 mi SSE 4.6 mph - N/A Fog Fog
10:09 AM 64.4 °F 64.4 °F 100% 30.12 in 0.5 mi SE 4.6 mph - N/A Fog Fog
10:10 AM 64.4 °F 64.4 °F 100% 30.12 in 0.5 mi SSE 4.6 mph - N/A Fog Fog
10:14 AM 64.4 °F 64.4 °F 100% 30.12 in 0.8 mi SE 4.6 mph - N/A   Mist
10:20 AM 64.4 °F 64.4 °F 100% 30.13 in 0.8 mi SE 3.5 mph - N/A   Mist
10:21 AM 64.4 °F 64.4 °F 100% 30.12 in 0.8 mi SE 3.5 mph - N/A   Mist
10:32 AM 66.2 °F 66.2 °F 100% 30.12 in 0.8 mi SE 3.5 mph - N/A   Mist
10:33 AM 66.2 °F 66.2 °F 100% 30.12 in 0.8 mi SE 4.6 mph - N/A   Mist
10:34 AM 66.2 °F 66.2 °F 100% 30.12 in 1.0 mi ESE 4.6 mph - N/A   Mist
10:35 AM 66.2 °F 66.2 °F 100% 30.12 in 1.0 mi ESE 4.6 mph - N/A   Mist
10:38 AM 66.2 °F 66.2 °F 100% 30.12 in 1.2 mi SE 4.6 mph - N/A   Overcast
10:41 AM 66.2 °F 66.2 °F 100% 30.12 in 1.5 mi SSE 4.6 mph - N/A   Overcast
10:44 AM 66.2 °F 66.2 °F 100% 30.12 in 2.0 mi SE 5.8 mph - N/A   Overcast
10:49 AM 66.2 °F 66.2 °F 100% 30.12 in 3.0 mi Variable 3.5 mph - N/A   Overcast
10:55 AM 66.7 °F 66.7 °F 100% 30.12 in 4.0 mi SE 3.5 mph - N/A   Overcast
11:08 AM 68.0 °F 68.0 °F 100% 30.12 in 7.0 mi SE 3.5 mph - N/A   Overcast
11:19 AM 68.0 °F 68.0 °F 100% 30.11 in 7.0 mi ESE 4.6 mph - N/A   Overcast
11:33 AM 68.0 °F 68.0 °F 100% 30.11 in 10.0 mi ESE 5.8 mph - N/A   Mostly Cloudy
11:35 AM 68.0 °F 68.0 °F 100% 30.11 in 10.0 mi SE 4.6 mph - N/A   Mostly Cloudy
11:36 AM 68.0 °F 68.0 °F 100% 30.10 in 10.0 mi ESE 4.6 mph - N/A   Mostly Cloudy
11:55 AM 70.7 °F 70.7 °F 100% 30.09 in 10.0 mi ESE 4.6 mph - N/A   Partly Cloudy
12:55 PM 75.4 °F 71.6 °F 88% 30.07 in 10.0 mi ENE 3.5 mph - N/A   Scattered Clouds
1:55 PM 74.3 °F 68.4 °F 82% 30.05 in 10.0 mi Calm Calm - N/A   Mostly Cloudy
2:55 PM 70.9 °F 67.8 °F 90% 30.05 in 8.0 mi NNW 5.8 mph - N/A   Overcast
3:41 PM 69.8 °F 66.2 °F 88% 30.06 in 10.0 mi NNW 5.8 mph - N/A   Light Drizzle
3:48 PM 69.8 °F 66.2 °F 88% 30.05 in 10.0 mi North 3.5 mph - N/A   Overcast
3:49 PM 69.8 °F 66.2 °F 88% 30.05 in 10.0 mi North 4.6 mph - N/A   Light Drizzle
3:53 PM 69.8 °F 66.2 °F 88% 30.05 in 10.0 mi NNW 3.5 mph - N/A   Light Drizzle
3:55 PM 69.6 °F 66.9 °F 91% 30.06 in 10.0 mi NNW 3.5 mph - 0.00 in   Light Drizzle
4:55 PM 64.9 °F 64.9 °F 100% 30.09 in 7.0 mi NNW 9.2 mph - 0.05 in Rain Light Rain
5:31 PM 64.4 °F 64.4 °F 100% 30.09 in 2.5 mi North 6.9 mph - N/A Rain Heavy Rain
5:40 PM 64.4 °F 64.4 °F 100% 30.10 in 3.0 mi NNW 5.8 mph - N/A Rain Light Rain
5:48 PM 64.4 °F 64.4 °F 100% 30.10 in 4.0 mi North 4.6 mph - N/A Rain Rain
5:52 PM 64.4 °F 64.4 °F 100% 30.10 in 4.0 mi North 3.5 mph - N/A Rain Light Rain
5:55 PM 63.7 °F 63.7 °F 100% 30.10 in 3.0 mi North 5.8 mph - 0.08 in Rain Heavy Rain
6:06 PM 64.4 °F 64.4 °F 100% 30.10 in 4.0 mi North 4.6 mph - N/A Rain Light Rain
6:19 PM 64.4 °F 64.4 °F 100% 30.11 in 5.0 mi NW 4.6 mph - N/A Rain Light Rain
6:21 PM 64.4 °F 64.4 °F 100% 30.11 in 5.0 mi NW 4.6 mph - N/A Rain Light Rain
6:33 PM 64.4 °F 64.4 °F 100% 30.12 in 5.0 mi North 8.1 mph - N/A Rain Light Rain
6:37 PM 64.4 °F 64.4 °F 100% 30.12 in 5.0 mi North 8.1 mph - N/A Rain Light Rain
6:50 PM 64.4 °F 64.4 °F 100% 30.13 in 5.0 mi North 6.9 mph - N/A Rain Light Rain
6:51 PM 64.4 °F 64.4 °F 100% 30.13 in 5.0 mi North 6.9 mph - N/A Rain Light Rain
6:52 PM 64.4 °F 64.4 °F 100% 30.13 in 5.0 mi North 6.9 mph - N/A Rain Light Rain
6:55 PM 64.2 °F 64.2 °F 100% 30.13 in 6.0 mi NNE 6.9 mph - 0.03 in Rain Light Rain
6:59 PM 64.4 °F 64.4 °F 100% 30.13 in 6.0 mi North 6.9 mph - N/A Rain Light Rain
7:00 PM 64.4 °F 64.4 °F 100% 30.13 in 6.0 mi North 5.8 mph - N/A Rain Light Rain
7:01 PM 64.4 °F 64.4 °F 100% 30.13 in 6.0 mi NNE 4.6 mph - N/A Rain Light Rain
7:02 PM 64.4 °F 64.4 °F 100% 30.13 in 7.0 mi North 4.6 mph - N/A Rain Light Rain
7:05 PM 64.4 °F 64.4 °F 100% 30.13 in 7.0 mi Variable 3.5 mph - N/A Rain Light Rain
7:08 PM 64.4 °F 64.4 °F 100% 30.13 in 8.0 mi Variable 4.6 mph - N/A Rain Light Rain
7:12 PM 64.4 °F 64.4 °F 100% 30.13 in 9.0 mi Variable 4.6 mph - N/A Rain Light Rain
7:27 PM 64.4 °F 64.4 °F 100% 30.14 in 10.0 mi NE 11.5 mph - N/A   Overcast
7:28 PM 64.4 °F 64.4 °F 100% 30.14 in 10.0 mi NE 9.2 mph - N/A   Overcast
7:31 PM 64.4 °F 64.4 °F 100% 30.14 in 10.0 mi ENE 12.7 mph - N/A   Light Drizzle
7:40 PM 62.6 °F 62.6 °F 100% 30.14 in 10.0 mi NE 12.7 mph - N/A Rain Light Rain
7:53 PM 62.6 °F 62.6 °F 100% 30.15 in 8.0 mi NE 13.8 mph - N/A Rain Light Rain
7:54 PM 62.6 °F 62.6 °F 100% 30.15 in 8.0 mi NE 13.8 mph - N/A Rain Light Rain
7:55 PM 62.6 °F 62.6 °F 100% 30.15 in 8.0 mi NE 11.5 mph - 0.01 in Rain Light Rain
8:01 PM 62.6 °F 62.6 °F 100% 30.16 in 8.0 mi NE 10.4 mph - N/A Rain Light Rain
8:04 PM 62.6 °F 62.6 °F 100% 30.15 in 8.0 mi NE 11.5 mph - N/A Rain Light Rain
8:18 PM 62.6 °F 62.6 °F 100% 30.15 in 8.0 mi NE 12.7 mph - N/A   Light Drizzle
8:24 PM 60.8 °F 60.8 °F 100% 30.15 in 8.0 mi ENE 16.1 mph - N/A   Light Drizzle
8:36 PM 60.8 °F 60.8 °F 100% 30.15 in 10.0 mi ENE 16.1 mph - N/A   Overcast
8:50 PM 60.8 °F 60.8 °F 100% 30.15 in 10.0 mi ENE 13.8 mph - N/A   Overcast
8:55 PM 60.3 °F 60.3 °F 100% 30.16 in 10.0 mi ENE 17.3 mph - 0.01 in   Overcast
9:03 PM 60.8 °F 60.8 °F 100% 30.16 in 10.0 mi ENE 17.3 mph - N/A   Overcast
9:14 PM 60.8 °F 60.8 °F 100% 30.16 in 10.0 mi ENE 12.7 mph - N/A   Overcast
9:15 PM 60.8 °F 60.8 °F 100% 30.16 in 10.0 mi ENE 12.7 mph - N/A Rain Light Rain
9:24 PM 59.0 °F 59.0 °F 100% 30.17 in 8.0 mi ENE 13.8 mph - N/A Rain Light Rain
9:32 PM 59.0 °F 59.0 °F 100% 30.17 in 5.0 mi ENE 13.8 mph - N/A Rain Light Rain
9:39 PM 59.0 °F 59.0 °F 100% 30.17 in 3.0 mi ENE 13.8 mph - N/A Rain Heavy Rain
9:46 PM 59.0 °F 59.0 °F 100% 30.16 in 3.0 mi ENE 15.0 mph - N/A Rain Rain
9:51 PM 59.0 °F 59.0 °F 100% 30.16 in 3.0 mi ENE 16.1 mph - N/A Rain Light Rain
9:55 PM 59.0 °F 59.0 °F 100% 30.17 in 3.0 mi ENE 13.8 mph - 0.06 in Rain Light Rain
10:10 PM 59.0 °F 59.0 °F 100% 30.17 in 5.0 mi ENE 17.3 mph - N/A Rain Light Rain
10:18 PM 59.0 °F 59.0 °F 100% 30.17 in 4.0 mi ENE 17.3 mph - N/A Rain Light Rain
10:28 PM 59.0 °F 59.0 °F 100% 30.16 in 5.0 mi East 20.7 mph - N/A Rain Light Rain
10:31 PM 59.0 °F 59.0 °F 100% 30.17 in 5.0 mi ENE 20.7 mph - N/A Rain Light Rain
10:32 PM 59.0 °F 59.0 °F 100% 30.17 in 5.0 mi ENE 20.7 mph - N/A Rain Light Rain
10:52 PM 59.0 °F 59.0 °F 100% 30.17 in 5.0 mi ENE 13.8 mph 18.4 mph N/A Rain Rain
10:55 PM 58.5 °F 58.5 °F 100% 30.17 in 4.0 mi ENE 15.0 mph 19.6 mph 0.04 in Rain Light Rain
10:56 PM 59.0 °F 59.0 °F 100% 30.17 in 4.0 mi ENE 15.0 mph 19.6 mph N/A Rain Light Rain
11:08 PM 59.0 °F 59.0 °F 100% 30.18 in 5.0 mi ENE 11.5 mph - N/A Rain Light Rain
11:12 PM 59.0 °F 59.0 °F 100% 30.18 in 5.0 mi NE 9.2 mph - N/A Rain Light Rain
11:21 PM 59.0 °F 59.0 °F 100% 30.18 in 6.0 mi ENE 10.4 mph - N/A Rain Light Rain
11:25 PM 59.0 °F 59.0 °F 100% 30.18 in 7.0 mi NE 8.1 mph - N/A Rain Light Rain
11:29 PM 59.0 °F 59.0 °F 100% 30.18 in 6.0 mi NE 6.9 mph - N/A Rain Light Rain
11:55 PM 58.8 °F 58.8 °F 100% 30.17 in 6.0 mi East 13.8 mph - 0.03 in Rain Light Rain
11:58 PM 59.0 °F 59.0 °F 100% 30.17 in 6.0 mi ENE 11.5 mph - N/A Rain Light Rain